Terminal Aerodrome Forecast
Issued by NWS

Home | Current Version | Previous Version | Text Only | Print | Product List | Glossary On
Versions: 1 2 3 4 5 6 7 8 9 10 11 12 13 14 15 16 17 18 19 20 21 22 23 24 25
365
FTUS42 KCAE 210755 AAA
TAFCUB
TAF AMD
KCUB 210755Z 2108/2206 VRB03KT P6SM SCT250
     FM210900 VRB03KT 4SM BR OVC015
     FM211000 VRB03KT 1SM BR OVC004
      TEMPO 2112/2116 3/4SM -SHRA
     FM211600 VRB03KT 3SM -SHRA BR SCT004 OVC008=

USA.gov is the U.S. government's official web portal to all federal, state and local government web resources and services.